GFSSW_con_mlcape_087.txt.gz
CAPE
0 0 0 0 0 0 0 0 0 0 0 0 0 0 0 0 0 0 0 0 0 0 0 0 0 0 0 105 38 141 59 31 46 32 42 60 93 298 100 132 122 85 10 0 1
0 0 0 0 0 0 0 0 0 0 0 0 0 0 0 0 0 0 0 0 0 0 0 0 0 0 0 1 60 69 99 42 65 92 51 119 235 109 160 158 117 65 18 7 0
0 0 1 1 1 1 0 0 0 0 0 0 0 0 0 0 0 0 0 0 0 0 0 0 0 0 0 0 2 48 111 92 52 106 113 80 94 0 12 57 133 51 4 6 0
0 1 1 2 1 1 0 0 0 0 0 0 0 0 0 0 0 0 0 0 0 0 0 0 0 0 0 0 0 0 6 34 13 72 25 83 18 0 50 167 189 71 8 0 0
1 1 1 3 1 1 1 1 0 0 0 0 1 0 0 0 0 0 0 0 0 0 0 0 0 0 0 0 0 0 0 0 0 35 12 91 13 12 80 208 120 54 0 0 0
0 1 1 1 1 2 1 1 1 0 0 0 0 0 0 0 0 0 0 0 0 0 0 0 0 0 0 0 0 0 0 0 0 0 2 29 71 101 88 99 106 31 0 7 6
0 0 1 2 0 0 0 0 0 0 0 0 0 0 0 0 0 0 0 0 0 0 0 0 0 0 0 0 0 0 0 0 2 0 13 98 21 31 148 92 101 93 63 38 31
0 1 1 0 0 1 0 0 0 0 0 0 1 0 0 0 0 0 0 0 0 0 0 0 0 0 0 0 0 0 0 0 82 8 97 91 150 73 271 188 119 58 33 13 22
1 1 1 0 1 0 0 0 0 0 0 0 0 0 0 0 0 0 0 0 0 0 0 0 0 0 0 0 0 0 0 0 22 283 121 167 126 208 448 562 255 101 12 6 27
0 0 2 1 2 1 0 0 0 0 0 0 0 0 0 0 0 0 0 0 0 0 0 0 0 0 0 0 0 0 0 0 0 145 237 144 107 102 413 523 442 239 76 6 27
0 1 1 1 1 1 0 0 0 0 0 0 0 0 0 0 0 0 0 0 0 0 0 0 0 0 0 0 0 0 0 0 0 0 0 0 0 0 211 541 464 359 171 62 25
0 2 1 0 0 0 0 0 0 0 0 0 0 0 0 0 0 0 0 0 0 0 0 0 0 0 0 0 0 0 0 0 0 0 0 0 0 7 187 338 567 347 227 131 40
3 2 1 0 0 0 0 0 0 0 0 0 0 0 0 0 0 0 0 0 0 0 0 0 0 0 0 0 0 0 0 0 0 0 1 0 0 0 158 379 569 379 312 203 153
2 1 0 0 0 0 0 0 0 0 0 0 0 0 0 0 0 0 0 0 0 0 0 0 0 0 0 0 0 0 0 0 0 0 0 0 0 0 55 293 412 557 426 282 230
1 0 0 0 0 0 0 0 0 0 0 0 0 0 0 0 0 0 0 0 0 0 0 0 0 0 0 0 0 0 0 0 0 0 0 0 0 0 0 16 420 518 547 387 267
0 0 0 0 0 0 0 0 0 0 0 0 0 0 0 0 0 0 0 0 0 0 0 0 0 0 0 0 0 0 0 0 0 0 0 0 0 0 0 0 0 179 504 397 313
0 0 0 0 0 0 0 0 0 0 0 0 0 0 0 0 0 0 0 0 0 0 0 0 0 0 0 0 0 0 0 0 0 0 0 0 0 0 0 0 0 0 149 427 359
0 0 0 0 0 0 0 0 0 0 0 0 0 0 0 0 0 0 0 0 0 0 0 0 0 0 0 0 0 0 0 0 0 0 0 0 0 0 0 0 0 0 73 158 334
0 0 0 0 0 0 0 0 0 0 0 0 0 0 0 0 0 0 0 0 0 0 0 0 0 0 0 0 0 0 0 0 0 0 0 0 0 0 0 0 0 0 0 0 81
0 0 0 0 0 0 0 0 0 0 0 0 0 0 0 0 0 0 0 0 0 0 0 0 0 0 0 0 0 0 0 0 0 0 0 0 0 0 0 0 0 0 0 58 53
0 0 0 0 0 0 0 0 0 0 0 0 0 0 0 0 0 0 0 0 0 0 0 0 0 0 0 0 0 0 0 0 0 0 0 0 0 0 0 0 0 0 0 22 140
0 0 0 0 0 0 0 0 0 0 0 0 0 0 0 0 0 0 0 0 0 0 0 0 0 0 0 0 0 0 0 0 0 0 0 0 0 0 0 0 0 0 0 0 88
0 0 0 0 0 0 0 0 0 0 0 0 0 0 0 0 0 0 0 0 0 0 0 0 0 0 0 0 0 0 0 0 0 0 0 0 0 0 0 0 0 0 0 1 2
0 0 0 0 0 0 0 0 0 0 0 0 0 0 0 0 0 0 0 0 0 0 0 0 0 0 0 0 0 0 0 0 0 0 0 0 0 0 0 0 0 0 0 2 2
0 0 0 0 0 0 0 0 0 0 0 0 0 0 0 0 0 0 0 0 0 0 0 0 0 0 0 0 0 0 0 0 0 0 0 0 0 0 0 0 0 0 0 0 0
0 0 0 0 0 0 0 0 0 0 0 0 0 0 0 0 0 0 0 0 0 0 0 0 0 0 0 0 0 0 0 0 0 0 0 0 0 0 0 0 0 0 0 0 0
0 0 0 0 0 0 0 0 0 0 0 0 0 0 0 0 0 0 0 0 0 0 0 0 0 0 0 0 0 0 0 0 0 0 0 0 0 0 0 0 0 0 0 0 0

GFSSW_con_mlcape_093.txt.gz
CAPE
0 0 0 1 1 1 1 1 0 0 0 0 0 0 0 0 0 0 0 0 0 0 0 0 0 0 0 37 369 441 404 117 72 154 41 70 119 90 199 516 422 478 112 0 0
0 0 0 1 1 2 1 1 1 0 0 0 0 0 0 0 0 0 0 0 0 0 0 0 0 0 0 1 334 318 407 172 85 99 155 147 140 27 251 399 485 269 0 0 0
2 1 1 1 1 1 1 2 0 0 0 0 0 0 0 0 0 0 0 0 0 0 0 0 0 0 0 0 320 277 391 138 78 261 267 122 220 77 151 426 415 56 0 0 0
3 2 1 2 1 1 0 1 1 0 0 0 0 0 0 0 0 0 0 0 0 0 0 0 0 0 0 0 4 196 215 114 52 23 193 435 469 316 423 509 518 135 0 0 0
1 1 0 0 1 1 0 0 0 1 0 0 0 0 0 0 0 0 0 0 0 0 0 0 0 0 0 0 0 51 207 54 0 14 160 459 233 302 502 651 614 211 0 0 0
1 1 1 1 1 1 0 0 1 0 0 0 0 0 0 0 0 0 0 0 0 0 0 0 0 0 0 0 0 0 245 60 10 3 173 162 248 489 487 752 519 76 0 0 0
1 1 1 1 1 1 1 0 0 0 0 0 0 0 0 0 0 0 0 0 0 0 0 0 0 0 0 0 0 0 206 55 0 0 5 366 215 482 568 623 275 31 0 0 0
1 1 0 1 1 1 1 0 0 0 0 0 0 0 0 0 0 0 0 0 0 0 0 0 0 0 0 0 0 0 84 78 36 0 10 274 119 495 521 555 230 34 0 1 0
2 1 2 1 1 1 1 0 0 0 0 0 0 0 0 0 0 0 0 0 0 0 0 0 0 0 0 0 0 0 89 89 78 41 19 218 248 463 507 597 231 55 0 5 5
1 1 1 1 0 1 0 0 0 0 0 0 0 0 0 0 0 0 0 0 0 0 0 0 0 0 0 0 0 0 158 73 132 109 54 338 554 584 504 671 443 154 39 31 25
1 1 2 1 1 0 0 0 0 0 0 0 0 0 0 0 0 0 0 0 0 0 0 0 0 0 0 0 0 0 91 68 91 102 126 274 419 896 674 599 697 519 225 120 182
1 0 1 1 0 0 0 0 0 0 0 0 0 0 0 0 0 0 0 0 0 0 0 0 0 0 0 0 0 0 39 58 92 105 93 216 343 448 903 837 444 776 585 346 200
1 0 1 0 0 0 0 0 0 0 0 0 0 0 0 0 0 0 0 0 0 0 0 0 0 0 0 0 0 0 36 87 129 0 1 16 94 158 166 510 870 808 644 326 89
1 0 0 0 0 0 0 0 0 0 0 0 0 0 0 0 0 0 0 0 0 0 0 0 0 0 0 0 0 0 2 49 10 0 36 3 72 97 95 206 641 919 947 426 155
0 0 0 0 0 0 0 0 0 0 0 0 0 0 0 0 0 0 0 0 0 0 0 0 0 0 0 0 0 0 0 37 28 0 55 20 7 28 213 242 427 547 787 656 323
0 0 0 0 0 0 0 0 0 0 1 0 0 0 0 0 0 0 0 0 0 0 0 0 0 0 0 0 0 5 1 3 16 2 12 11 17 55 105 124 131 401 642 771 583
0 0 0 0 0 0 0 0 0 28 0 0 0 0 0 0 0 0 0 0 0 0 0 1 0 0 0 0 1 30 8 0 0 0 2 0 0 85 57 33 51 33 546 619 784
0 0 0 0 0 0 0 10 71 21 3 0 0 0 0 0 0 0 0 0 0 0 8 0 0 0 0 2 9 12 3 1 0 0 0 1 56 36 46 87 154 199 374 537 675
0 2 8 0 0 0 72 0 31 6 0 0 0 1 0 0 0 0 0 0 0 0 0 9 7 0 0 0 0 15 2 1 17 4 0 60 25 43 62 116 257 344 719 855 524
0 43 17 0 0 11 109 8 0 0 0 0 5 2 12 7 0 3 9 0 0 0 0 4 2 0 0 0 0 0 3 1 3 14 11 22 2 49 58 88 154 478 724 628 726
0 29 1 8 8 72 23 4 0 0 0 8 6 16 9 1 0 1 4 0 0 0 0 0 4 0 0 0 0 0 0 4 44 3 42 13 58 12 71 44 194 226 257 290 391
0 44 0 0 119 49 57 0 0 0 0 10 0 0 0 4 0 7 4 0 0 0 0 0 0 0 0 0 0 0 0 26 14 0 0 3 0 18 40 37 292 81 19 32 56
0 0 0 0 126 0 0 0 0 0 1 0 1 0 12 25 33 22 0 0 0 0 2 0 0 2 0 0 0 0 0 0 11 15 31 5 0 39 87 13 134 102 58 0 1
0 2 0 0 0 0 0 0 0 0 0 0 0 12 31 64 48 21 0 0 0 0 0 0 0 1 0 0 0 0 0 0 0 0 26 63 2 62 56 22 45 18 10 3 1
0 0 0 1 0 0 0 0 0 0 0 0 0 0 20 46 69 68 16 0 0 0 0 0 2 0 0 0 0 0 0 0 0 0 16 100 61 36 5 16 19 11 4 0 0
0 0 0 0 0 0 0 0 0 0 0 0 0 0 0 57 27 29 21 17 7 0 0 0 11 0 0 0 0 0 0 0 0 0 1 123 1 7 0 0 0 0 0 0 0
0 0 0 0 0 0 0 0 0 0 0 0 0 0 0 0 0 0 0 0 0 3 0 1 26 6 0 0 0 0 0 0 0 0 0 18 1 0 0 0 0 0 0 0 0

GFSSW_con_mlcape_096.txt.gz
CAPE
2 2 2 1 1 1 0 0 0 0 1 0 0 0 0 0 0 0 0 0 0 0 0 0 0 0 0 0 115 319 197 15 7 0 21 133 114 80 131 382 287 564 0 0 0
2 2 2 2 1 1 1 0 0 0 0 0 0 0 0 0 0 0 0 0 0 0 0 0 0 0 0 0 16 219 41 106 57 58 28 96 4 3 23 390 389 5 0 0 0
2 0 0 1 2 3 2 2 1 0 0 0 0 0 0 0 0 0 0 0 0 0 0 0 0 0 0 0 36 153 43 170 176 197 119 77 10 0 38 324 335 0 0 0 0
1 1 1 1 2 2 2 1 0 0 0 0 0 0 0 0 0 0 0 0 0 0 0 0 0 0 0 0 5 164 22 47 308 340 234 187 73 111 149 59 174 5 0 0 3
1 1 1 2 1 0 1 1 1 0 0 0 0 0 0 0 0 0 0 0 0 0 0 0 0 0 0 0 0 65 0 138 63 322 339 323 124 356 10 112 333 29 0 0 6
0 1 0 0 1 0 0 1 0 0 0 0 0 0 0 0 0 0 0 0 0 0 0 0 0 0 0 0 0 59 286 162 24 145 558 428 190 391 110 400 146 0 0 1 5
1 1 1 2 1 1 0 1 1 0 0 0 0 0 0 0 0 0 0 0 0 0 0 0 0 0 0 0 0 0 10 233 52 100 428 341 299 337 561 361 102 0 0 3 8
0 1 2 1 1 1 1 0 0 0 0 0 0 0 0 0 0 0 0 0 0 0 0 0 0 0 0 0 0 0 4 315 45 28 342 312 224 563 543 344 105 1 2 2 16
1 1 1 1 1 1 1 0 0 0 0 0 0 0 0 0 0 0 0 0 0 0 0 0 0 0 0 0 0 0 19 149 56 35 324 317 42 462 636 350 125 20 2 4 8
1 1 1 1 1 1 0 0 0 0 0 0 0 0 0 0 0 0 0 0 0 0 0 0 0 0 0 0 0 0 0 97 113 22 209 200 165 357 681 391 147 42 5 10 5
1 1 1 1 1 0 0 0 0 0 0 0 0 0 0 0 0 0 0 0 0 0 0 0 0 0 0 0 0 0 0 135 37 0 215 63 0 479 662 496 200 60 12 13 15
2 2 0 0 0 0 0 0 0 0 0 0 0 0 0 0 0 0 0 0 0 0 0 0 0 0 0 0 0 0 0 107 6 4 227 16 75 323 744 693 439 162 68 60 26
0 0 0 0 0 0 0 0 0 0 0 0 0 0 0 0 0 0 0 0 0 0 0 0 0 0 0 0 0 0 0 97 3 0 191 299 138 0 778 632 742 552 316 153 60
0 0 0 0 0 0 0 0 0 0 0 0 0 0 0 0 0 0 0 0 0 0 0 0 0 0 0 0 0 0 0 6 99 66 15 50 179 567 850 405 177 695 672 524 290
0 0 0 0 0 0 0 0 0 0 0 0 0 0 0 0 0 0 0 0 0 0 0 0 0 0 0 0 0 0 0 52 46 5 2 11 163 250 245 330 0 5 749 482 130
0 0 0 0 0 0 0 0 0 0 0 0 0 0 0 0 0 0 0 0 0 0 0 0 0 0 0 0 0 0 0 0 27 12 0 5 0 107 135 9 66 121 758 393 298
0 0 0 0 0 0 0 0 0 4 6 0 0 0 0 0 0 0 0 0 0 0 0 0 0 0 0 0 0 0 0 1 23 5 0 0 14 72 4 0 59 182 683 196 0
0 0 0 0 0 0 0 25 42 0 30 0 0 0 0 0 0 0 0 0 0 0 1 0 1 0 0 0 0 0 9 9 9 0 0 0 154 42 31 111 36 309 451 455 12
0 0 0 45 28 2 73 61 2 38 0 0 0 0 1 0 3 0 0 0 0 0 18 26 8 0 0 0 14 20 7 27 3 0 3 197 115 9 3 101 236 903 749 490 595
0 0 78 1 0 16 5 0 5 0 0 0 16 35 4 4 0 3 0 1 0 0 0 6 3 3 0 0 0 4 22 14 15 4 24 317 79 87 53 461 607 686 705 536 562
0 10 75 2 4 6 0 2 7 0 5 3 47 25 18 15 24 31 29 2 0 0 0 0 0 0 0 0 0 0 0 0 2 14 24 314 161 180 265 518 440 262 123 112 176
0 27 0 0 74 107 42 0 0 6 0 0 0 13 27 13 9 24 37 0 0 0 0 0 0 1 0 0 0 0 0 4 12 0 4 92 85 29 295 407 162 25 11 3 1
0 0 0 0 4 28 0 0 0 3 0 0 0 0 0 0 25 28 0 0 0 0 0 0 1 21 0 0 0 0 0 0 15 33 55 7 34 80 266 172 68 7 0 0 0
0 0 4 0 0 1 0 0 0 0 0 0 0 0 0 0 0 3 1 0 0 0 0 0 0 0 0 2 0 0 0 0 0 4 10 6 0 192 100 25 34 26 0 0 0
0 0 0 0 0 0 0 0 0 0 0 0 0 0 0 0 0 11 10 0 0 0 0 0 0 1 0 0 0 0 0 0 0 0 190 103 344 234 146 2 0 0 2 0 0
0 0 0 0 0 2 0 0 0 0 0 0 5 8 1 16 35 0 4 0 0 0 0 0 4 8 1 0 0 0 0 0 0 0 183 119 211 25 6 4 1 1 5 0 0
0 0 0 0 0 0 0 0 0 0 0 0 0 0 17 1 0 0 1 7 1 8 3 0 2 29 0 0 0 0 0 0 0 0 361 132 2 0 0 0 0 0 0 0 0

GFSSW_con_mlcape_102.txt.gz
CAPE
2 2 2 2 1 1 1 1 1 1 0 0 0 0 0 0 0 0 0 0 0 0 0 0 0 0 0 0 0 158 26 46 26 62 125 121 17 48 29 3 0 0 0 0 0
2 2 2 1 2 2 2 2 2 2 1 0 0 0 0 0 0 0 0 0 0 0 0 0 0 0 0 0 0 27 0 7 36 49 46 143 64 5 3 11 66 3 0 3 80
1 0 1 0 0 0 1 0 2 1 2 2 0 0 0 0 0 0 0 0 0 0 0 0 0 0 0 0 0 2 0 1 40 106 243 61 36 4 2 1 5 0 0 41 19
0 0 1 0 0 0 0 0 1 1 0 2 1 0 0 0 0 0 0 0 0 0 0 0 0 0 0 0 0 0 5 0 21 169 91 67 3 0 0 1 6 2 0 2 47
0 1 0 0 0 1 0 0 0 0 0 1 2 0 0 0 0 0 0 0 0 0 0 0 0 0 0 0 0 0 28 20 99 85 12 18 81 164 3 61 21 23 6 23 56
0 0 0 1 1 1 1 1 0 0 0 1 1 1 0 0 0 0 0 0 0 0 0 0 0 0 0 0 0 10 70 47 88 112 47 102 65 31 9 81 7 10 2 25 53
1 1 0 0 1 1 1 0 0 0 0 0 0 0 0 0 0 0 0 0 0 0 0 0 0 0 0 0 0 0 0 58 124 262 185 44 18 3 18 48 5 3 2 13 45
2 1 1 1 1 1 0 0 0 0 0 0 1 0 0 0 0 0 0 0 0 0 0 0 0 0 0 0 0 0 4 6 188 231 266 124 1 12 1 64 41 2 0 26 52
1 1 1 0 0 1 0 0 0 0 1 0 0 0 0 0 0 0 0 0 0 0 0 0 0 0 0 0 0 0 0 5 265 370 265 88 0 7 37 58 56 21 0 13 47
1 1 1 0 0 0 0 0 0 0 0 0 0 0 0 0 0 0 0 0 0 0 0 0 0 0 0 0 0 0 0 0 15 124 101 48 0 6 51 56 95 25 0 5 26
1 0 0 0 0 0 0 0 0 0 0 0 0 0 0 0 0 0 0 0 0 0 0 0 0 0 0 0 0 0 0 6 241 139 65 10 0 0 1 108 129 3 0 5 29
0 0 0 0 0 0 0 0 0 0 0 0 0 0 0 0 0 0 0 0 0 0 0 0 0 0 0 0 0 0 0 8 119 58 61 71 116 145 89 162 118 0 0 2 19
0 0 0 0 0 0 0 0 0 0 0 0 0 0 0 0 0 0 0 0 0 0 0 0 0 0 0 0 0 0 0 0 21 16 3 88 17 96 113 134 18 2 0 3 4
0 0 0 0 0 0 0 0 0 0 0 0 0 0 0 0 0 0 0 0 0 0 0 0 0 0 0 0 0 0 0 0 52 80 43 86 1 0 3 39 65 61 5 0 1
0 0 0 0 0 0 0 0 0 0 0 0 0 0 0 0 0 0 0 0 0 0 0 0 0 0 0 0 0 0 0 0 24 81 112 28 0 0 0 79 166 172 16 1 1
0 0 0 0 0 0 0 0 0 0 0 0 0 0 0 0 0 0 0 0 0 0 0 0 0 0 0 0 0 0 0 83 64 38 6 0 0 2 0 47 206 248 47 51 33
0 0 0 0 0 0 0 0 6 16 6 11 1 0 0 0 0 0 0 0 0 0 0 0 0 0 0 0 0 0 0 0 5 14 0 0 0 3 24 159 313 336 210 124 119
0 0 0 0 0 0 0 0 9 24 0 0 0 0 0 0 0 0 0 0 0 0 0 0 0 0 0 0 0 0 0 0 0 0 1 7 0 16 31 169 284 214 271 239 215
0 0 0 0 0 0 0 0 1 18 0 0 0 0 0 0 0 0 0 0 0 0 0 0 0 0 0 0 0 0 0 0 0 0 0 78 49 99 81 2 130 46 187 179 249
0 0 0 0 0 0 0 0 0 0 0 0 0 0 0 0 0 0 0 0 0 0 0 0 0 0 0 0 0 0 0 0 0 0 0 66 82 44 38 233 174 19 10 161 71
0 0 0 0 0 0 0 0 0 0 1 0 0 0 0 0 0 3 0 0 0 0 0 0 0 0 0 0 0 0 0 0 0 0 5 49 60 282 198 337 239 275 210 147 75
0 0 0 0 0 0 0 0 0 0 0 0 0 0 0 0 0 1 0 0 0 0 0 0 0 0 0 0 0 0 0 0 0 0 52 73 93 191 113 145 188 172 181 54 76
0 0 0 0 0 0 0 0 0 0 0 0 0 0 0 0 0 0 0 0 0 0 0 0 0 0 0 0 0 0 0 0 0 0 0 0 64 121 75 60 31 112 100 93 38
0 0 0 0 0 0 0 0 0 0 0 0 0 0 0 0 0 0 0 0 0 0 0 0 0 0 0 0 0 0 0 0 0 0 0 19 150 166 39 26 25 1 1 0 1
0 0 0 0 0 0 0 0 0 0 0 0 0 0 0 4 0 0 0 0 0 0 0 0 0 0 0 0 0 0 0 0 0 0 0 117 144 197 44 1 0 0 0 0 0
0 0 0 0 0 0 0 0 0 0 0 0 0 0 0 0 0 0 0 0 0 0 0 0 0 0 0 0 0 0 0 0 0 120 93 191 156 53 0 0 0 0 0 0 0
0 0 0 0 0 0 0 0 0 0 0 0 0 0 0 0 0 0 0 0 0 0 0 0 0 0 0 0 0 0 0 51 109 115 93 65 100 0 0 0 0 0 0 0 0

GFSSW_con_mlcape_105.txt.gz
CAPE
3 2 2 3 3 1 1 2 1 0 2 0 1 1 0 0 0 0 0 0 0 0 0 0 0 0 0 0 0 17 0 0 27 38 55 30 4 22 34 2 0 0 0 2 4
0 0 0 1 0 0 1 1 0 0 0 1 1 1 0 0 0 0 0 0 0 0 0 0 0 0 0 0 0 0 0 0 2 1 77 13 0 1 0 0 0 0 0 0 0
1 1 0 0 0 0 0 1 1 0 0 0 1 0 1 0 0 0 0 0 0 0 0 0 0 0 0 0 0 0 0 0 0 25 95 9 0 1 0 6 0 0 0 0 1
1 2 1 2 1 0 1 0 1 1 0 0 0 1 0 0 0 0 0 0 0 0 0 0 0 0 0 0 0 0 0 4 0 117 131 1 1 1 13 3 0 0 13 0 0
0 1 1 1 1 1 1 1 1 1 1 0 0 1 0 0 0 0 0 0 0 0 0 0 0 0 0 0 0 0 4 11 164 38 35 10 2 0 3 0 0 20 0 23 5
1 1 1 1 1 1 1 1 1 1 1 0 0 1 0 0 0 0 0 0 0 0 0 0 0 0 0 0 0 0 0 22 31 73 36 50 11 60 4 101 0 30 0 16 23
1 1 2 1 0 1 0 0 1 1 0 0 0 0 0 0 0 0 0 0 0 0 0 0 0 0 0 0 0 0 0 84 89 81 84 31 23 30 6 30 0 0 3 27 49
3 0 0 2 0 0 0 1 2 0 1 0 0 0 0 0 0 0 0 0 0 0 0 0 0 0 0 0 0 0 0 12 126 216 64 51 0 8 12 5 0 0 0 40 56
0 1 1 1 0 1 0 0 0 1 0 0 0 0 0 0 0 0 0 0 0 0 0 0 0 0 0 0 0 0 0 26 162 350 125 42 0 0 14 3 1 0 0 14 39
1 1 0 1 0 0 0 0 0 0 1 0 0 0 0 0 0 0 0 0 0 0 0 0 0 0 0 0 0 0 0 24 57 168 175 46 0 23 12 5 7 0 0 7 32
0 0 0 0 0 0 0 0 0 0 0 0 0 0 0 0 0 0 0 0 0 0 0 0 0 0 0 0 0 0 0 32 163 92 10 10 9 12 34 26 0 22 0 6 11
0 0 0 0 0 0 0 0 0 0 0 0 0 0 0 0 0 0 0 0 0 0 0 0 0 0 0 0 0 0 0 29 166 107 6 0 1 12 28 49 53 75 0 0 19
0 0 0 0 0 0 0 0 0 0 0 0 0 0 0 0 0 0 0 0 0 0 0 0 0 0 0 0 0 0 0 2 66 36 45 30 19 10 23 45 86 145 0 0 16
0 0 0 0 0 0 0 0 0 0 0 0 0 0 0 0 0 0 0 0 0 0 0 0 0 0 0 0 0 0 0 0 73 16 0 4 0 58 46 28 72 102 1 14 7
0 0 0 0 0 0 0 0 0 0 0 0 0 0 0 0 0 0 0 0 0 0 0 0 0 0 0 0 0 0 0 0 1 34 30 13 1 0 127 19 53 112 2 6 8
0 0 0 0 0 0 0 0 0 0 0 0 0 0 0 0 0 0 0 0 0 0 0 0 0 0 0 0 0 0 7 19 60 41 3 16 18 0 57 82 0 102 29 2 21
0 0 0 0 0 0 0 0 0 1 0 0 0 0 0 0 0 0 0 0 0 0 0 0 0 0 0 0 0 0 0 0 19 19 3 0 7 0 12 44 6 68 70 2 3
0 0 0 0 0 0 0 0 0 16 0 0 0 0 0 0 0 0 0 0 0 0 0 0 0 0 0 0 0 0 0 0 0 0 1 0 0 0 36 23 168 260 121 69 8
0 0 0 0 0 0 0 0 0 0 0 0 0 0 0 0 0 0 0 0 0 0 0 0 0 0 0 0 0 0 0 0 0 0 0 0 11 47 73 92 298 229 170 182 54
0 0 0 0 0 0 0 0 0 0 0 0 0 0 0 0 0 0 0 0 0 0 0 0 0 0 0 0 0 0 0 0 0 0 0 1 35 46 149 131 97 212 148 141 140
0 0 0 0 0 0 0 0 0 0 0 0 0 0 0 1 0 0 0 0 0 0 0 0 0 0 0 0 0 0 0 0 0 0 0 0 13 247 334 356 179 68 77 120 165
0 0 0 0 0 0 0 0 0 0 0 0 0 0 0 0 4 0 0 0 0 0 0 0 0 0 0 0 0 0 0 0 0 0 0 24 13 203 278 259 263 79 62 60 66
0 0 0 0 0 0 0 0 0 0 0 0 0 0 0 0 0 0 0 0 0 0 0 0 0 0 0 0 0 0 0 0 0 0 6 4 20 161 223 155 139 107 41 48 38
0 0 0 0 0 0 0 0 0 0 0 0 0 0 0 0 0 0 0 0 0 0 0 0 0 0 0 0 0 0 0 0 0 0 0 0 39 252 202 152 66 33 9 3 2
0 0 0 0 0 0 0 0 0 0 0 0 0 0 0 0 0 0 0 0 0 0 0 0 0 0 0 0 0 0 0 0 0 0 0 20 41 265 273 132 5 0 0 0 0
0 0 0 0 0 0 0 0 0 0 0 0 0 0 0 0 0 0 0 0 0 0 0 0 0 0 0 0 0 0 0 0 0 0 14 144 175 195 132 3 0 0 0 0 0
0 0 0 0 0 0 0 0 0 0 0 0 0 0 0 0 0 0 0 0 0 0 0 0 0 0 0 0 0 0 0 0 80 140 127 111 221 167 81 20 0 0 0 0 0

GFSSW_con_mlcape_108.txt.gz
CAPE
0 0 0 0 0 0 0 1 0 1 1 0 2 0 0 0 0 0 0 0 0 0 0 0 0 0 0 0 0 10 1 0 34 41 1 40 24 36 18 0 0 0 0 0 50
1 1 1 0 2 0 0 0 0 0 0 0 0 1 1 0 0 0 0 0 0 0 0 0 0 0 0 0 0 0 0 0 1 16 26 17 10 1 0 0 0 0 0 2 40
1 1 1 1 1 0 1 0 0 0 0 1 0 0 0 1 0 0 0 0 0 0 0 0 0 0 0 0 0 0 0 2 26 29 18 32 12 11 20 3 0 0 0 0 0
1 1 1 1 1 1 0 1 1 0 0 0 0 1 0 0 0 0 0 0 0 0 0 0 0 0 0 0 0 0 0 4 19 167 104 52 4 17 61 6 0 0 0 0 0
1 1 1 1 1 1 1 0 1 0 0 0 0 0 0 0 0 0 0 0 0 0 0 0 0 0 0 0 0 0 1 60 48 228 33 15 5 16 22 5 0 0 0 0 0
1 1 1 0 0 0 1 1 0 0 0 0 0 1 0 0 0 0 0 0 0 0 0 0 0 0 0 0 0 0 0 66 137 112 51 8 0 3 16 14 0 0 3 0 0
2 0 0 1 1 1 1 0 0 0 0 0 0 0 0 0 0 0 0 0 0 0 0 0 0 0 0 0 0 0 0 45 155 78 102 13 2 24 12 13 0 10 16 4 0
0 0 2 1 1 1 1 0 1 1 1 1 0 0 0 0 0 0 0 0 0 0 0 0 0 0 0 0 0 0 0 0 145 98 85 14 11 69 40 54 3 14 12 4 0
0 1 0 0 0 0 0 0 0 2 0 1 0 0 0 0 0 0 0 0 0 0 0 0 0 0 0 0 0 0 0 4 130 97 52 30 3 14 52 77 1 1 20 25 30
0 0 0 0 0 0 0 0 0 0 0 0 0 0 0 0 0 0 0 0 0 0 0 0 0 0 0 0 0 0 0 24 102 129 136 71 27 2 52 99 16 21 33 36 44
0 0 0 0 0 0 0 0 0 0 0 0 0 0 0 0 0 0 0 0 0 0 0 0 0 0 0 0 0 0 51 99 162 102 67 0 0 41 41 84 52 0 7 19 54
0 0 0 0 0 0 0 0 0 0 0 0 0 0 0 0 0 0 0 0 0 0 0 0 0 0 0 0 0 0 18 53 183 88 2 0 1 33 69 62 57 62 0 0 40
0 0 0 0 0 0 0 0 0 0 0 0 0 0 0 0 0 0 0 0 0 0 0 0 0 0 0 0 0 0 0 32 64 62 21 3 13 31 66 46 73 84 0 0 1
0 0 0 0 0 0 0 0 0 0 0 0 0 0 0 0 0 0 0 0 0 0 0 0 0 0 0 0 0 0 0 20 103 9 1 0 0 9 18 21 46 63 40 0 0
0 0 0 0 0 0 0 0 0 0 0 0 0 0 0 0 0 0 0 0 0 0 0 0 0 0 0 0 0 0 0 0 8 10 11 9 0 0 25 44 6 19 31 0 6
0 0 0 0 0 0 0 0 0 0 0 0 0 0 0 0 0 0 0 0 0 0 0 0 0 0 0 0 0 0 0 19 18 10 0 2 1 0 36 22 0 7 20 0 7
0 0 0 0 0 0 0 0 0 0 0 0 0 0 0 0 0 0 0 0 0 0 0 0 0 0 0 0 0 0 0 2 0 0 0 0 0 0 3 50 43 6 43 18 5
0 0 0 0 0 0 0 0 0 0 0 0 0 0 0 0 0 0 0 0 0 0 0 0 0 0 0 0 0 0 0 0 0 0 0 0 1 0 3 0 70 12 35 19 0
0 0 0 0 0 0 0 0 0 0 0 0 0 0 0 0 0 0 0 0 0 0 0 0 0 0 0 0 0 0 0 0 0 0 0 0 0 20 35 8 33 47 63 13 0
0 0 0 0 0 0 0 0 0 0 0 0 0 0 2 0 0 0 0 0 0 0 0 0 0 0 0 0 0 0 0 0 0 0 0 0 0 5 46 73 164 195 146 80 0
0 0 0 0 0 0 0 0 0 0 0 0 0 0 2 14 0 0 0 0 0 0 0 0 0 0 0 0 0 0 0 0 0 0 0 0 0 119 80 102 230 252 245 106 26
0 0 0 0 0 0 0 0 0 0 0 0 0 0 0 0 8 0 0 0 0 0 0 0 0 0 0 0 0 0 0 0 0 0 0 0 0 170 271 296 167 151 203 88 41
0 0 0 0 0 0 0 0 0 0 0 0 0 0 0 0 2 0 0 0 0 0 0 0 0 0 0 0 0 0 0 0 0 8 17 0 0 215 237 235 173 98 110 49 35
0 0 0 0 0 0 0 0 0 0 0 0 0 0 0 0 0 0 0 0 0 0 0 0 0 0 0 0 0 0 0 0 0 0 4 0 57 283 204 233 196 198 87 68 48
0 0 0 0 0 0 0 0 0 0 0 0 0 0 0 0 0 0 0 0 0 0 0 0 0 0 0 0 0 0 0 0 0 0 0 1 48 243 249 150 175 127 138 98 37
0 0 0 0 0 0 0 0 0 0 0 0 0 0 0 0 0 0 0 0 0 0 0 0 0 0 0 0 0 0 0 0 0 0 1 60 158 315 191 44 84 65 37 21 0
0 0 0 0 0 0 0 0 0 0 0 0 0 0 0 0 0 0 0 0 0 0 0 0 0 0 0 0 0 0 0 0 37 100 142 22 169 269 141 76 11 0 0 0 0

GFSSW_con_mlcape_111.txt.gz
CAPE
0 0 0 0 0 0 0 0 2 1 1 0 0 0 0 0 0 0 0 0 0 0 0 0 0 0 0 18 49 19 0 1 47 49 67 72 44 10 18 1 0 9 0 30 70
1 0 0 0 0 0 0 0 0 0 1 1 0 0 1 1 0 0 0 0 0 0 0 0 0 0 0 0 3 34 0 2 0 16 47 26 24 2 0 3 0 0 22 42 48
1 1 1 0 0 1 0 0 0 0 0 0 2 0 1 1 0 0 0 0 0 0 0 0 0 0 0 0 0 0 0 1 77 11 3 23 5 36 15 3 0 0 0 14 22
1 1 1 1 1 0 1 0 1 0 0 0 0 1 0 0 0 0 0 0 0 0 0 0 0 0 0 0 0 16 3 0 70 35 2 42 3 55 61 18 0 0 25 0 8
1 1 1 1 2 1 1 1 1 0 0 1 1 2 0 0 0 0 0 0 0 0 0 0 0 0 0 0 0 10 2 59 74 36 56 36 16 45 23 1 0 0 20 0 0
1 1 1 1 0 1 1 0 0 1 2 0 1 0 0 0 0 0 0 0 0 0 0 0 0 0 0 0 0 0 33 181 101 47 42 27 14 46 39 3 0 0 0 0 0
1 1 1 0 0 1 1 1 1 0 0 0 0 0 0 0 0 0 0 0 0 0 0 0 0 0 0 0 0 0 29 153 159 107 61 36 23 24 48 4 1 0 0 0 0
1 1 2 1 0 1 1 1 2 0 1 1 1 0 0 0 0 0 0 0 0 0 0 0 0 0 0 0 0 0 13 13 180 180 70 45 22 22 29 1 18 9 28 49 70
0 1 1 0 0 0 0 0 1 0 1 1 0 0 0 0 0 0 0 0 0 0 0 0 0 0 0 0 0 0 0 23 148 149 110 48 36 100 45 5 56 36 75 83 74
0 0 0 0 0 0 0 0 1 0 0 0 0 0 0 0 0 0 0 0 0 0 0 0 0 0 0 0 0 0 0 84 122 158 104 48 5 9 80 8 54 82 93 96 85
0 0 0 1 0 0 0 0 0 0 0 0 0 0 0 0 0 0 0 0 0 0 0 0 0 0 0 0 0 0 0 137 140 150 116 40 5 8 67 81 77 98 72 98 111
0 0 0 0 0 0 0 0 0 0 0 0 0 0 0 0 0 0 0 0 0 0 0 0 0 0 0 0 0 288 196 118 212 95 73 13 10 47 62 125 72 99 117 126 141
0 0 0 0 0 0 0 0 0 0 0 0 0 0 0 0 0 0 0 0 0 0 0 0 0 0 0 0 0 0 14 106 160 144 52 74 31 72 100 126 151 82 73 92 141
0 0 0 0 0 0 0 0 0 0 0 0 0 0 0 0 0 0 0 0 0 0 0 0 0 0 0 0 0 0 0 180 135 26 58 0 0 11 124 111 98 94 41 6 57
0 0 0 0 0 0 0 0 0 0 0 0 0 0 0 0 0 0 0 0 0 0 0 0 0 0 0 0 0 0 0 173 138 60 16 0 0 1 8 85 50 75 85 12 10
0 0 0 0 0 0 0 0 0 0 0 0 0 0 0 0 0 0 0 0 0 0 0 0 0 0 0 0 0 0 85 142 101 64 0 0 0 19 14 0 63 74 100 90 0
0 0 0 0 0 0 0 0 0 0 0 0 0 0 0 0 0 0 0 0 0 0 0 0 0 0 0 0 0 0 0 0 0 0 0 0 0 6 46 59 63 57 106 77 46
0 0 0 0 0 0 0 0 0 0 0 0 0 0 0 0 0 0 0 0 0 0 0 0 0 0 0 0 0 0 0 0 0 0 0 5 0 27 50 42 147 87 34 69 66
0 0 0 0 0 0 0 0 0 0 0 0 0 0 0 0 0 0 0 0 0 0 0 0 0 0 0 0 0 0 0 0 0 0 0 14 30 48 117 65 152 131 63 36 48
0 0 0 0 0 0 0 0 0 0 0 0 0 0 0 4 4 0 0 0 0 0 0 0 0 0 0 0 0 0 0 0 0 0 0 0 9 103 134 149 102 183 159 103 71
0 0 0 0 0 0 0 0 0 0 0 0 0 0 0 54 37 0 0 0 0 0 0 0 0 0 0 0 0 0 0 0 0 0 0 0 8 131 209 301 312 342 223 195 75
0 0 0 0 0 0 0 0 0 0 0 0 0 0 0 1 6 2 0 0 0 0 0 0 0 0 0 0 0 0 0 0 0 0 0 0 11 309 549 425 531 508 418 223 114
0 0 0 0 0 0 0 0 0 0 0 0 0 0 0 0 0 0 0 0 0 0 0 0 0 0 0 0 0 0 0 0 0 9 19 4 3 453 592 497 491 393 334 208 177
0 0 0 0 0 0 0 0 0 0 0 0 0 0 0 0 0 0 0 0 0 0 0 0 0 0 2 0 0 0 0 0 0 0 28 14 21 282 469 613 398 299 275 181 131
0 0 0 0 0 0 0 0 0 0 0 0 0 0 0 0 0 0 0 0 0 0 0 0 0 0 0 0 0 0 0 0 0 0 0 21 54 338 565 605 451 293 215 190 160
0 0 0 0 0 0 0 0 0 0 0 0 0 0 0 0 0 0 0 0 0 0 0 0 0 0 0 0 0 0 0 21 0 0 55 93 132 690 552 476 278 299 135 92 26
0 0 0 0 0 0 0 0 0 0 0 0 0 0 0 0 0 0 0 0 0 0 0 0 2 0 0 0 0 0 27 83 98 129 240 98 350 646 403 380 182 94 43 9 5

GFSSW_con_mlcape_114.txt.gz
CAPE
1 1 2 1 1 1 0 1 1 2 1 2 1 1 0 0 0 0 0 0 0 0 0 0 0 0 19 60 143 186 106 31 45 79 52 95 96 125 81 91 8 2 0 66 126
1 1 1 2 1 1 1 1 1 1 0 1 2 1 0 0 0 0 0 0 0 0 0 0 0 0 0 2 80 187 91 38 55 36 35 73 84 49 66 137 64 0 52 59 82
1 1 2 2 2 2 1 1 1 0 1 1 1 1 0 0 0 0 0 0 0 0 0 0 0 0 0 0 24 65 71 62 118 88 53 39 88 60 86 84 59 58 45 51 31
2 1 2 2 0 1 1 1 1 1 0 1 0 1 0 0 0 0 0 0 0 0 0 0 0 0 0 0 0 77 107 28 55 57 5 9 31 66 70 42 19 0 60 29 10
2 2 1 1 1 1 1 1 1 1 1 1 1 0 0 0 0 0 0 0 0 0 0 0 0 0 0 0 2 135 68 110 70 16 58 47 88 65 38 12 0 0 0 0 0
2 1 1 1 1 1 1 0 1 0 1 0 0 0 0 0 0 0 0 0 0 0 0 0 0 0 0 0 6 0 45 112 62 28 71 32 26 79 7 6 0 0 0 0 0
1 1 1 1 0 0 0 0 1 0 1 1 0 0 0 0 0 0 0 0 0 0 0 0 0 0 0 0 0 0 4 130 63 42 19 16 0 62 14 0 0 0 0 0 0
0 0 1 0 0 1 0 1 1 2 0 0 0 0 0 0 0 0 0 0 0 0 0 0 0 0 0 0 0 0 1 55 121 39 76 29 28 138 6 0 0 0 0 0 0
0 0 0 0 0 0 0 0 1 1 0 0 0 0 0 0 0 0 0 0 0 0 0 0 0 0 0 0 0 0 17 47 176 95 13 20 29 54 12 0 7 7 1 41 52
0 0 0 0 0 0 0 0 0 0 0 0 0 0 0 0 0 0 0 0 0 0 0 0 0 0 0 0 0 0 0 212 124 154 79 147 41 43 23 54 43 44 70 81 121
0 0 0 0 0 0 0 0 0 0 0 0 0 0 0 0 0 0 0 0 0 0 0 0 0 0 0 1 0 0 0 238 205 83 149 81 12 75 48 28 48 42 70 106 130
0 0 0 0 0 0 0 0 0 0 0 0 0 0 0 0 0 0 0 0 0 0 0 0 0 0 0 2 0 2 1 251 213 374 143 101 112 92 75 0 97 59 52 98 116
0 0 0 0 0 0 0 0 0 0 0 0 0 0 0 0 0 0 0 0 0 0 0 0 0 0 0 0 0 187 132 220 184 251 231 113 97 146 66 40 77 78 120 75 97
0 0 0 0 0 0 0 0 0 0 0 0 0 0 0 0 0 0 0 0 0 0 0 0 0 0 0 0 0 0 6 203 364 193 123 249 3 170 90 112 130 62 103 112 96
0 0 0 0 0 0 0 0 0 0 9 0 0 0 0 0 0 0 0 0 0 0 0 0 0 0 0 0 0 0 4 134 216 137 140 105 0 12 177 153 76 126 44 62 81
0 0 0 0 0 0 0 0 0 0 0 0 0 0 0 0 0 0 0 0 0 0 0 0 0 0 0 0 0 0 3 19 25 109 4 37 71 44 181 153 180 133 135 22 58
0 0 0 0 0 0 0 0 1 1 0 0 0 0 0 0 0 0 0 0 0 0 0 0 0 0 0 0 0 0 13 4 0 0 36 0 0 72 61 89 201 204 159 182 10
0 0 0 0 0 0 0 0 0 0 0 0 0 0 1 0 29 0 0 0 0 0 0 0 0 0 0 0 0 0 10 4 6 43 74 69 0 45 97 94 141 210 176 209 151
0 0 0 0 0 0 0 0 0 0 0 0 0 1 2 0 20 29 6 14 0 0 0 0 0 0 0 0 0 0 0 3 9 53 63 86 82 165 197 186 180 214 206 110 235
0 0 0 0 0 0 0 0 0 0 0 0 0 0 17 11 14 50 55 56 31 0 0 1 0 0 0 0 0 0 0 3 0 32 20 102 72 293 354 303 256 230 236 147 162
0 0 0 0 0 0 0 0 0 0 0 0 0 34 102 91 40 73 41 3 0 0 0 0 0 0 0 0 0 0 0 0 10 0 56 73 96 592 713 590 450 388 249 192 162
0 0 0 0 0 0 0 0 0 0 0 0 0 4 89 143 110 100 15 2 0 0 0 0 1 26 0 0 0 0 0 0 0 8 0 64 402 657 823 792 562 640 494 309 274
0 0 0 0 0 0 0 0 0 0 0 0 0 0 47 119 105 107 0 0 0 0 18 9 0 31 25 0 0 0 0 0 0 3 21 11 136 976 964 933 931 920 769 536 374
0 0 0 0 0 0 0 0 0 0 0 0 0 0 28 88 8 5 0 0 0 13 0 0 50 38 21 16 2 0 0 0 4 12 19 58 272 863 973 894 628 699 648 622 621
0 0 0 0 0 0 0 0 0 0 0 0 0 0 16 84 79 33 0 0 0 0 5 3 87 60 9 28 12 2 0 0 0 0 25 25 37 421 944 1072 631 504 603 595 544
0 0 0 0 0 0 0 0 0 0 0 0 0 0 0 0 4 3 0 0 0 0 92 20 50 83 36 1 86 44 35 11 3 4 25 12 363 1025 1095 1063 929 556 399 363 393
0 0 0 0 0 0 0 0 0 0 0 0 0 0 0 0 0 0 0 0 0 0 0 2 42 92 95 28 10 159 248 194 157 205 274 56 693 1101 1046 907 570 365 213 110 80

GFSSW_con_mlcape_117.txt.gz
CAPE
1 1 2 2 1 1 1 1 1 1 0 1 1 0 0 0 0 0 0 0 0 0 0 0 0 0 0 11 99 232 202 127 95 49 116 175 153 275 322 148 152 161 18 40 56
1 1 2 1 1 2 2 1 1 0 2 1 1 0 0 0 0 0 0 0 0 0 0 0 0 0 0 0 59 331 283 181 174 234 57 163 135 172 248 209 184 108 81 47 35
1 1 1 1 2 1 2 2 1 1 0 0 0 0 0 0 0 0 0 0 0 0 0 0 0 0 0 0 132 162 129 125 230 150 89 87 102 173 286 243 171 165 48 41 5
1 2 0 0 1 1 1 1 0 1 1 0 0 0 0 0 0 0 0 0 0 0 0 0 0 0 0 1 157 140 118 357 205 58 71 98 170 140 132 224 140 126 0 0 0
1 1 1 0 0 1 0 0 0 1 0 0 0 0 0 0 0 0 0 0 0 0 0 0 0 0 0 2 160 139 155 259 152 0 22 79 136 115 219 42 64 35 3 0 0
1 1 0 0 0 0 0 0 0 0 0 0 0 0 0 0 0 0 0 0 0 0 0 0 0 0 0 32 120 170 203 134 52 60 66 105 134 138 19 12 5 0 2 1 1
0 0 1 0 0 0 0 0 0 0 0 0 0 0 0 0 0 0 0 0 0 0 0 0 0 0 0 75 106 54 163 146 71 32 49 35 2 81 35 8 2 1 2 6 3
0 0 0 0 0 0 0 0 0 1 0 0 0 0 0 0 0 0 0 0 0 0 0 0 0 0 0 45 15 108 138 127 37 19 27 22 0 72 23 14 3 3 12 12 11
0 0 0 0 0 0 0 0 0 0 0 0 0 0 0 0 0 0 0 0 0 0 0 0 0 0 0 48 26 81 53 118 64 35 20 26 10 63 38 24 7 8 25 47 36
0 0 0 0 0 0 0 0 0 0 0 0 0 0 0 0 0 0 0 0 0 0 0 0 0 0 0 21 106 50 80 172 46 28 29 16 45 50 57 23 39 37 53 63 58
0 0 0 0 0 0 0 0 0 0 0 0 0 0 0 0 0 0 0 0 0 0 0 0 0 0 0 48 39 8 23 161 70 100 19 11 30 0 0 1 21 55 69 83 94
0 0 0 0 0 0 0 0 0 0 0 0 0 0 0 0 0 0 0 0 0 0 0 0 0 0 0 67 59 0 24 145 129 56 0 54 106 31 0 0 94 53 52 70 100
0 0 0 0 0 0 0 0 0 0 1 0 0 0 0 0 0 0 0 0 0 0 0 0 0 0 0 15 41 0 88 182 67 67 39 60 81 114 2 0 6 79 48 86 107
0 0 0 0 0 0 0 0 0 0 5 0 0 0 0 0 0 0 0 0 0 0 0 0 0 0 0 1 21 27 151 58 183 162 89 192 99 202 127 0 25 68 69 32 98
0 0 0 0 0 0 0 0 0 0 0 0 0 0 0 0 0 0 0 0 0 0 0 0 0 0 0 0 13 6 0 27 12 274 1 236 124 250 131 0 1 45 78 44 46
0 0 0 0 0 0 0 0 0 0 1 9 2 5 0 0 0 0 0 0 0 0 0 0 0 0 0 0 21 0 0 93 205 151 117 125 110 264 59 0 2 131 101 97 99
0 0 0 0 0 0 0 0 1 15 0 0 7 4 3 2 7 0 0 0 0 0 0 0 0 0 0 0 22 0 3 86 76 73 81 97 105 107 227 109 146 128 118 82 83
0 0 0 0 0 0 0 0 13 0 1 0 0 0 0 31 27 0 0 0 0 0 0 0 0 0 0 0 2 0 45 141 76 62 101 60 49 229 245 303 261 136 207 97 108
0 0 0 0 0 0 0 19 0 0 0 0 2 7 8 0 4 23 1 1 1 0 0 0 0 0 0 0 0 1 18 130 108 52 4 67 323 278 197 174 272 352 200 84 91
0 0 0 0 0 0 0 0 0 0 0 0 2 0 29 24 0 72 45 21 28 0 0 5 3 1 0 0 0 0 5 68 101 33 33 110 0 289 227 206 209 232 341 236 196
0 3 0 0 0 0 0 0 0 0 0 0 1 24 28 7 47 54 75 3 66 26 0 0 1 1 0 0 0 0 0 10 87 58 10 70 25 461 384 399 245 289 371 340 313
0 17 0 0 0 0 0 0 0 0 0 0 0 7 50 85 110 107 22 0 0 3 9 0 6 0 0 0 0 0 0 6 33 30 3 0 1 447 743 536 503 409 579 404 302
0 0 0 0 3 0 0 0 0 0 0 0 4 0 17 121 123 132 50 1 0 0 45 38 0 5 16 0 0 0 0 0 0 13 29 9 281 64 1009 892 730 581 398 323 213
0 0 0 0 0 0 0 0 0 0 0 0 0 0 17 140 112 70 58 0 21 77 0 2 35 8 51 20 6 0 0 0 0 0 0 52 793 1045 1122 1188 1265 1082 882 544 471
0 1 0 10 0 0 0 0 0 0 0 0 5 0 22 209 259 148 43 11 77 17 80 20 15 36 9 24 11 0 0 0 0 0 9 23 220 782 975 1084 989 1060 1070 820 735
2 0 0 0 0 0 0 0 0 0 0 0 4 0 13 191 206 0 52 20 53 115 98 158 142 81 0 0 8 10 0 4 1 0 2 5 5 178 859 988 784 777 1011 924 899
0 0 0 0 0 0 0 0 0 0 0 0 0 2 55 4 0 1 15 0 0 8 61 53 61 125 67 16 8 27 70 36 43 45 78 260 348 169 1278 1391 810 740 555 689 495

GFSSW_con_mlcape_123.txt.gz
CAPE
0 0 0 2 1 1 2 1 1 1 0 0 0 0 0 0 0 0 0 0 0 0 0 0 0 0 0 0 25 416 18 59 32 34 39 246 151 132 60 3 0 0 0 130 231
1 2 1 1 1 1 1 0 0 0 0 0 1 0 0 0 0 0 0 0 0 0 0 0 0 0 0 0 0 155 61 110 126 59 54 281 258 198 62 67 5 0 22 112 94
1 0 1 0 1 0 0 0 0 0 0 1 0 0 0 0 0 0 0 0 0 0 0 0 0 0 0 0 0 180 118 255 285 176 133 238 220 345 150 36 0 0 6 99 66
2 1 1 1 1 0 0 0 0 0 0 1 1 0 0 0 0 0 0 0 0 0 0 0 0 0 0 0 63 159 78 513 343 155 117 171 146 208 199 39 0 0 0 71 66
0 0 0 0 0 0 0 0 0 0 0 0 0 0 0 0 0 0 0 0 0 0 0 0 0 0 0 4 187 202 415 384 152 52 55 67 147 131 118 50 15 0 23 54 49
0 0 0 0 0 0 0 0 0 0 0 0 0 0 0 0 0 0 0 0 0 0 0 0 0 0 0 0 126 109 149 202 151 35 41 121 138 88 205 82 3 0 5 24 46
0 0 0 0 0 0 0 0 0 0 0 1 0 0 0 0 0 0 0 0 0 0 0 0 0 0 0 1 261 164 126 156 119 48 84 29 79 85 134 69 36 0 1 8 17
0 0 0 0 0 0 0 0 0 0 0 0 0 0 0 0 0 0 0 0 0 0 0 0 0 0 0 0 231 162 151 57 60 36 37 35 44 68 64 51 20 0 9 21 34
0 0 0 0 0 0 0 0 0 0 0 0 0 0 0 0 0 0 0 0 0 0 0 0 0 0 0 0 19 86 82 56 18 40 25 40 66 87 94 48 1 0 12 19 44
0 0 0 0 0 0 0 0 0 0 0 0 0 0 0 0 0 0 0 0 0 0 0 0 0 0 0 0 0 37 69 75 58 27 13 21 51 77 84 80 16 9 21 21 45
0 0 0 0 0 0 0 0 0 0 0 0 0 0 0 0 0 0 0 0 0 0 0 0 0 0 0 0 0 27 41 67 47 51 19 13 40 54 77 99 24 25 44 27 19
0 0 0 0 0 0 0 0 0 0 0 0 0 0 0 0 0 0 0 0 0 0 0 0 0 0 0 0 0 21 21 48 61 47 46 28 25 22 53 79 87 50 30 33 15
0 0 0 0 0 0 0 0 0 0 0 0 0 0 0 0 0 0 0 0 0 0 0 0 0 0 0 0 0 38 65 37 33 63 18 11 7 5 23 38 40 40 49 31 12
0 0 0 0 0 0 0 0 0 0 0 0 0 0 0 0 0 0 0 0 0 0 0 0 0 0 0 0 0 13 114 21 69 10 0 3 0 8 3 16 23 26 86 87 16
0 0 0 0 0 0 0 0 0 0 2 0 0 0 0 0 0 0 0 0 0 0 0 0 0 0 0 0 0 66 0 71 86 7 1 6 0 0 11 0 0 0 46 57 13
0 0 0 0 0 0 0 0 0 0 2 0 0 0 0 0 0 0 0 0 0 0 0 0 0 0 0 0 10 207 174 115 50 0 0 0 7 3 0 4 0 0 13 42 10
0 0 0 0 0 0 0 0 0 25 4 0 0 0 0 0 0 0 0 0 0 0 0 0 0 0 0 0 37 161 134 21 0 0 0 0 0 0 28 26 15 0 0 18 21
0 0 0 0 0 0 0 0 1 0 0 0 0 0 0 12 0 0 0 0 0 0 0 0 0 0 0 0 0 8 20 13 0 0 0 2 0 41 98 124 36 0 0 13 52
0 0 0 0 0 0 0 0 0 0 0 0 0 12 15 4 16 7 0 0 0 0 0 0 0 0 0 0 0 0 42 12 11 13 0 3 14 0 292 300 95 4 0 6 72
0 0 0 0 0 0 0 0 0 0 0 0 0 0 15 3 2 5 16 14 1 0 2 0 0 0 0 0 0 0 1 6 0 9 0 30 58 83 253 144 113 41 0 50 74
0 0 0 0 0 0 0 0 0 0 0 0 0 0 0 1 31 24 5 21 1 0 0 0 0 0 0 0 0 0 0 0 0 2 18 10 6 179 0 127 46 53 50 79 108
0 0 0 0 0 0 0 0 0 0 0 0 0 0 0 0 29 4 1 0 0 0 0 0 0 0 0 1 0 0 0 0 0 0 0 0 1 237 117 0 0 2 32 87 169
0 0 0 0 0 0 0 0 0 0 0 0 0 0 0 0 20 7 15 7 0 0 0 0 0 0 0 1 1 0 0 0 0 0 0 0 13 123 234 54 0 15 34 74 231
0 0 0 0 0 0 0 0 0 0 0 0 0 0 0 0 91 56 36 11 0 0 9 0 0 0 0 0 0 0 1 0 0 0 0 0 48 69 54 5 0 0 89 249 294
0 0 0 0 1 0 0 0 0 0 0 0 0 0 0 1 152 155 118 63 62 54 71 10 0 0 14 0 0 0 0 41 0 0 0 95 355 187 211 100 9 5 9 273 300
0 0 0 4 0 0 0 0 0 0 0 0 0 0 0 2 122 3 0 116 126 30 21 86 90 150 29 43 40 12 135 157 51 339 177 548 482 126 250 22 64 0 0 51 282
0 0 13 0 0 0 0 0 0 0 0 0 0 0 0 35 31 18 24 31 80 27 2 20 283 98 149 152 77 13 45 85 150 609 666 328 113 3 11 2 0 0 0 160 639